MDT,Max TemperatureF,Mean TemperatureF,Min TemperatureF,Max Dew PointF,MeanDew PointF,Min DewpointF,Max Humidity, Mean Humidity, Min Humidity, Max Sea Level PressureIn, Mean Sea Level PressureIn, Min Sea Level PressureIn, Max VisibilityMiles, Mean VisibilityMiles, Min VisibilityMiles, Max Wind SpeedMPH, Mean Wind SpeedMPH, Max Gust SpeedMPH,PrecipitationIn, CloudCover, Events, WindDirDegrees
2012-9-1,85,74,63,33,30,27,29,20,12,30.38,30.33,30.26,10,10,10,14,7,22,0.00,0,,187
2012-9-2,84,75,66,48,39,32,40,28,18,30.36,30.30,30.25,10,10,10,14,3,22,0.01,0,Rain,333
2012-9-3,82,72,63,44,41,35,49,32,19,30.37,30.31,30.26,10,10,10,14,5,21,0.00,2,Rain,40
2012-9-4,84,75,66,39,33,26,33,22,13,30.36,30.29,30.22,10,10,10,14,6,17,0.00,0,,7
2012-9-5,83,74,64,36,31,21,30,21,12,30.33,30.26,30.21,10,10,10,12,5,17,0.00,1,,170
2012-9-6,84,74,65,49,40,32,51,30,19,30.32,30.26,30.18,10,10,7,15,7,21,0.00,2,,182
2012-9-7,79,70,59,54,44,39,64,39,23,30.42,30.29,30.23,10,10,7,16,7,25,0.01,4,Rain,213
2012-9-8,66,60,54,46,43,38,71,57,37,30.53,30.46,30.40,10,10,10,16,12,23,0.01,4,,193
2012-9-9,73,62,51,48,41,34,70,48,24,30.47,30.41,30.33,10,10,10,14,5,23,0.00,0,,183
2012-9-10,71,63,55,54,49,46,79,62,40,30.37,30.31,30.22,10,10,7,17,6,20,0.00,4,Rain,203
2012-9-11,76,68,60,52,46,41,73,48,27,30.28,30.24,30.18,10,10,7,18,5,25,0.05,4,Rain,220
2012-9-12,61,56,51,56,52,46,97,81,62,30.37,30.27,30.21,10,8,0,25,2,36,0.40,7,Rain,75
2012-9-13,62,56,50,48,44,41,87,69,49,30.55,30.47,30.36,10,10,7,18,13,28,0.06,4,Rain,310
2012-9-14,64,54,45,45,39,32,94,61,30,30.56,30.52,30.45,10,10,10,12,5,17,0.00,0,,151
2012-9-15,73,60,47,40,35,32,60,43,22,30.49,30.40,30.31,10,10,10,13,6,18,0.00,0,,171
2012-9-16,78,66,55,37,27,6,42,25,8,30.35,30.28,30.21,10,10,10,20,5,25,0.00,0,,326
2012-9-17,74,64,52,39,25,10,56,26,11,30.32,30.22,30.13,10,10,7,29,6,44,0.00,1,,64
2012-9-18,72,60,47,39,33,18,67,41,16,30.41,30.35,30.30,10,10,7,9,3,17,0.00,0,,136
2012-9-19,76,66,56,28,20,9,29,18,9,30.38,30.33,30.28,10,10,7,16,3,21,0.00,0,,62
2012-9-20,77,67,57,23,15,10,23,14,9,30.35,30.30,30.23,10,10,10,15,3,22,0.00,0,,36
2012-9-21,78,67,56,25,18,14,25,15,9,30.37,30.31,30.27,10,10,10,12,4,21,0.00,0,,94
2012-9-22,80,70,59,27,19,12,26,15,7,30.42,30.36,30.32,10,10,10,17,4,24,0.00,0,,199
2012-9-23,80,70,60,27,24,19,26,18,10,30.44,30.37,30.33,10,10,7,18,6,26,0.00,1,,203
2012-9-24,74,65,56,40,30,24,55,28,15,30.34,30.27,30.19,10,10,10,21,7,31,0.00,3,Rain,223
2012-9-25,65,58,50,47,41,33,87,57,31,30.25,30.18,30.13,10,10,7,26,9,39,0.01,4,Rain,242
2012-9-26,71,58,45,43,37,22,90,49,16,30.26,30.21,30.16,10,10,2,17,3,25,0.00,2,,187
2012-9-27,70,61,52,45,37,23,60,42,19,30.32,30.27,30.21,10,10,7,14,4,22,0.09,4,Rain,152
2012-9-28,68,60,53,49,43,38,79,58,35,30.32,30.27,30.21,10,10,5,22,5,31,0.07,3,Rain,201
2012-9-29,70,60,49,48,42,34,89,58,28,30.34,30.29,30.21,10,10,7,15,7,26,0.04,2,Rain,207
2012-9-30,71,60,50,39,32,25,57,36,19,30.31,30.27,30.21,10,10,10,18,6,25,0.00,1,,13